User: anonymous   Login
Location: STAR School
(35.3054°N, 111.2976°W)
Time: 21:25:27
(UTC-07:00)
Language:

Explorer 11/Cluster Stage 4 - Orbit

View from above orbital plane
View from above orbital plane
View from above satellite
View from above satellite

Ground track
Ground track

The orbit data is extracted from the following two-line orbital elements,

1   107U 61013A   19145.62081357  .00000284  00000-0  18183-4 0  9990
2   107  28.7861 217.1451 0547441 142.6503 221.3442 14.08778026910897
Epoch (UTC): 25 May 2019 14:53:58
Eccentricity: 0.0547441
inclination: 28.7861°
perigee height: 467 km
apogee height: 1260 km
right ascension of ascending node: 217.1451°
argument of perigee: 142.6503°
revolutions per day: 14.08778026
mean anomaly at epoch: 221.3442°
orbit number at epoch: 91089

The dashed part of the orbit path shows where the satellite is in the earth's shadow,  

DLR